Location: Albligen
(46.8523°N, 7.3181°E)
Time: 21:53:28
(UTC+00:00)

Daily predictions for brighter satellites

Satellite Brightness Start Highest point End
(mag) Time Altitude Azimuth Time Altitude Azimuth Time Altitude Azimuth
COSMO-SKYMED 1 2.6 17:45:45 10° NNE 17:50:08 90° ESE 17:54:28 10° SSW
Ariane Rocket 4.4 17:49:42 10° ESE 17:53:18 20° ENE 17:56:55 10° NNE
Cosmos 1689 Rocket 3.2 17:51:02 10° N 17:53:56 50° WNW 17:56:48 10° SSW
H-2A R/B 2.5 17:49:20 10° SE 17:53:57 39° ENE 17:58:44 10° N
SJ 16-02 4.0 17:51:44 10° WSW 17:55:13 23° WNW 17:58:44 10° N
Cosmos 2263 Rocket 3.3 17:53:04 10° SW 17:58:28 49° WNW 18:03:55 10° NNE
USA 116 4.1 17:56:48 10° NNE 18:00:20 42° E 18:04:17 10° S
Cosmos 1939 Rocket 3.7 17:57:48 10° S 18:01:53 58° W 18:06:00 10° NNW
Cosmos 1844 Rocket 3.0 17:57:40 10° S 18:02:56 45° ESE 18:08:14 10° NE
Cosmos 372 Rocket 4.0 17:59:32 10° SSW 18:04:46 80° ESE 18:10:01 10° NNE
Cosmos 1707 2.6 18:01:23 10° N 18:05:14 72° E 18:09:03 10° SSE
Cosmos 1626 4.2 18:05:16 10° NE 18:06:26 11° ENE 18:07:28 10° E
NOSS 3-2 (C) 4.2 17:59:26 10° NW 18:06:46 63° NE 18:15:07 10° SE
CZ-2C R/B 3.8 18:07:00 10° SSW 18:07:05 10° SSW 18:07:11 10° SSW
Cosmos 1844 4.1 18:05:05 10° S 18:10:23 42° ESE 18:15:39 10° NE
Cosmos 2034 Rocket 4.3 18:04:51 10° SSE 18:10:50 45° E 18:16:49 10° NNE
ISS -3.1 18:07:57 10° W 18:11:16 52° NNW 18:14:35 10° ENE
NOSS 3-4 (A) 4.3 18:07:05 10° SSE 18:11:51 26° ESE 18:16:47 10° ENE
NOSS 3-4 (C) 4.3 18:07:14 10° SSE 18:11:57 26° ESE 18:16:53 10° ENE
USA 186 3.3 18:11:03 12° ESE 18:13:00 19° ENE 18:15:25 10° NNE
Meteor 1-12 Rocket 4.3 18:08:20 10° S 18:14:09 68° E 18:19:54 10° NNE
Cosmos 1300 Rocket 3.5 18:15:05 10° S 18:19:28 71° E 18:23:55 10° NNE
Okean 1 Rocket 4.0 18:19:02 10° SSE 18:22:49 27° E 18:26:36 10° NNE
Sich 1 Rocket 4.1 18:19:21 10° SSW 18:23:50 67° WNW 18:28:24 10° N
CENTAUR R/B 3.2 18:17:53 10° NW 18:25:53 74° NE 18:34:42 10° SE
Cosmos 2298 Rocket 4.0 18:20:44 10° SSW 18:26:03 82° ESE 18:31:25 10° NNE
Resurs 01 Rocket 3.6 18:25:51 11° ENE 18:26:42 12° ENE 18:28:23 10° NE
Cosmos 1833 Rocket 4.0 18:22:34 10° N 18:27:05 24° NE 18:30:12 16° E
CSL-04 Debris 4.2 18:24:38 10° SSE 18:30:01 84° WSW 18:35:27 10° NNW
CSL-04 Rocket 3.8 18:26:31 10° SSE 18:31:58 85° WSW 18:37:33 10° NNW
Cosmos 1766 4.2 18:30:27 10° SSE 18:33:47 27° E 18:37:10 10° NNE
Okean 2 Rocket 3.2 18:29:32 10° S 18:34:01 81° W 18:38:31 10° N
ATLAS 2AS CENTAUR R/B 3.4 18:26:59 10° S 18:34:12 40° ESE 18:41:26 10° NE
Cosmos 1025 Rocket 3.2 18:30:15 10° NNW 18:34:39 80° W 18:39:02 10° S
YAOGAN 1 3.5 18:30:27 10° S 18:34:40 50° W 18:38:54 10° NNW
ATLAS 3B R/B 3.4 18:31:42 10° NNW 18:38:02 39° NE 18:42:35 19° E
SWAS 4.4 18:36:20 10° NNW 18:40:39 85° WSW 18:44:39 12° SSE
Abrixas rocket 1.8 18:38:19 10° WNW 18:41:09 73° SSW 18:42:11 34° ESE
CREW DRAGON DEMO-1 DEB 2.7 18:40:04 10° WNW 18:43:05 85° SSW 18:44:16 34° ESE
Cosmos 1536 Rocket 3.6 18:39:58 10° N 18:44:27 85° W 18:48:55 10° S
Cosmos 1125 Rocket 3.4 18:41:23 10° SSW 18:46:41 78° ESE 18:52:01 10° NNE
SJ-6B 3.1 18:48:31 28° ESE 18:49:54 41° ENE 18:53:30 10° N
CZ-4 R/B 3.7 18:48:47 10° SSW 18:52:23 27° W 18:55:58 10° NW
CZ-2C R/B 4.1 18:49:11 10° S 18:54:23 52° W 18:59:55 10° NNW
Cosmos 1464 Rocket 4.4 18:48:53 10° SSW 18:54:58 65° WNW 19:01:09 10° N
USA 238 DEB 4.3 18:47:59 10° NW 18:55:06 61° WSW 19:02:27 10° SSE
USA 238 4.3 18:48:05 10° NW 18:55:12 61° WSW 19:02:35 10° SSE
Cosmos 1674 2.6 18:52:57 10° N 18:56:49 89° W 19:00:16 12° S
Cosmos 2285 Rocket 3.9 18:51:07 10° SSW 18:57:23 75° ESE 19:03:45 10° NNE
Cosmos 2026 Rocket 4.2 18:51:22 10° N 18:57:36 52° ENE 19:02:16 18° SSE
Cosmos 1092 Rocket 3.9 18:51:41 10° N 18:57:50 67° E 19:04:01 10° SSE
MOS 1 Rocket 3.4 18:58:46 10° N 19:03:08 69° WNW 19:07:22 10° SSW
FREGAT/IRIS 3.6 19:04:41 30° NNE 19:04:41 30° NNE 19:06:14 10° N
TSX-5 3.9 19:04:48 10° SSW 19:08:34 62° ESE 19:13:26 10° NE
ARGOS 3.6 19:04:37 10° S 19:09:55 63° WSW 19:15:17 10° NNW
CZ-2C R/B 2.6 19:07:51 10° NNE 19:13:25 68° ESE 19:19:01 10° S
Cosmos 1340 Rocket 3.5 19:15:11 37° NE 19:15:11 37° NE 19:18:03 10° NNE
Cosmos 2279 Rocket 4.4 19:12:59 30° SE 19:15:08 40° E 19:20:54 10° NNE
Cosmos 1733 3.0 19:13:47 25° S 19:15:54 74° E 19:19:44 10° NNE
MOS 1 4.2 19:13:05 19° SSE 19:17:17 83° ENE 19:23:01 10° NNW
GRACE-FO 1 4.4 19:15:10 10° N 19:18:54 70° E 19:19:03 69° ESE
Lacrosse 5 rocket 3.1 19:15:33 10° NW 19:19:15 25° NNE 19:20:43 21° NE
GRACE-FO 2 4.4 19:15:33 10° N 19:19:16 71° E 19:19:26 69° ESE
Cosmos 2082 Rocket 3.0 19:15:18 10° NNW 19:20:21 32° NE 19:21:17 31° ENE
BREEZE-M DEB (TANK) 4.1 19:19:49 10° W 19:23:15 41° SSW 19:27:36 23° SSE
DMSP B5D2-2 4.0 19:17:57 10° NNE 19:23:16 71° ESE 19:28:32 10° S
BREEZE-M R/B 3.5 19:14:13 10° WSW 19:23:40 86° NNW 19:24:25 54° ENE
OBJECT-B 1.9 19:28:48 36° N 19:28:48 36° N 19:30:54 10° N
Cosmos 1805 3.9 19:24:01 10° SSW 19:27:51 56° WNW 19:31:44 10° N
Cosmos 2142 Rocket 4.5 19:24:37 21° SSE 19:28:46 58° E 19:34:51 10° NNE
Ariane Rocket 3.3 19:28:06 19° S 19:31:47 65° WSW 19:36:51 10° NNW
Milstar 3 Cent rocket 4.3 19:29:49 10° SSW 19:32:11 12° S 19:32:39 12° S
H-2A R/B 3.9 19:29:08 10° SSW 19:33:29 29° W 19:37:57 10° NNW
USA 234 4.5 19:38:14 23° S 19:38:14 23° S 19:41:02 10° S
Cosmos 1269 Rocket 4.3 19:31:55 10° NNW 19:37:12 67° WSW 19:39:34 33° S
Terra 4.2 19:42:51 10° NE 19:42:51 10° NE 19:42:56 10° NE
Cosmos 1626 2.5 19:38:26 10° NNW 19:42:02 61° W 19:42:02 61° W
Okean 1-7 Rocket 3.9 19:37:58 10° N 19:41:50 53° NE 19:41:50 53° NE
MetOp-A 4.4 19:40:20 27° S 19:43:19 66° WSW 19:48:40 10° NNW
USA 186 3.8 19:42:34 23° SW 19:43:31 26° W 19:46:22 10° NW
COSMOS 2406 3.2 19:40:49 10° NNW 19:46:31 83° WSW 19:47:55 53° SSE
Cosmos 1844 Rocket 4.3 19:41:56 10° WSW 19:46:57 33° NW 19:52:01 10° NNE
ISS -2.0 19:45:22 10° WNW 19:47:46 31° NNW 19:47:46 31° NNW
Cosmos 2278 Rocket 2.2 19:45:07 10° SSW 19:51:32 58° ENE 19:56:19 10° NNE
Lacrosse 4 Rocket 2.5 19:50:06 10° NNW 19:52:52 36° N 19:52:52 36° N
Meteor 1-24 Rocket 4.2 19:53:25 10° NNW 19:58:53 57° W 20:01:37 30° SSW
Cosmos 909 Rocket 4.1 19:52:47 10° NNW 19:59:16 59° NE 19:59:55 56° ENE
Cosmos 2266 Rocket 4.2 19:55:18 10° N 20:00:34 48° ENE 20:00:34 48° ENE
SL-14 R/B 4.3 19:58:15 10° NNW 20:01:55 43° W 20:01:55 43° W
NOSS 3-4 (A) 3.7 19:56:14 10° SW 20:02:08 66° NW 20:08:30 10° NE
NOSS 3-4 (C) 3.7 19:56:20 10° SW 20:02:14 67° NW 20:08:36 10° NE
Resurs 01 Rocket 2.1 20:03:26 56° N 20:03:26 56° N 20:06:58 10° NNW
Meteor 2-19 Rocket 4.3 19:56:58 10° N 20:03:07 82° E 20:03:47 71° SSE
Cosmos 1833 Rocket 2.7 20:05:57 10° NNW 20:11:36 71° WSW 20:11:54 70° SW
Cosmos 2251 Rocket 3.7 20:09:06 10° NNW 20:13:44 64° N 20:13:44 64° N
CENTAUR R/B 4.4 20:09:06 10° NW 20:16:21 35° WSW 20:21:59 17° SSW
ARIANE 5 R/B 4.1 20:20:05 31° N 20:20:05 31° N 20:22:22 10° N
SPOT 3 Rocket 4.1 20:20:50 50° WSW 20:21:11 51° W 20:26:14 10° NNW
ATLAS 2AS CENTAUR R/B 3.4 20:17:07 10° SW 20:25:01 62° NW 20:32:48 10° NE
ATLAS 3B R/B 2.8 20:22:20 10° NW 20:29:08 65° WSW 20:29:50 61° SSW
Cosmos 1655 Rocket 4.1 20:31:34 10° NNW 20:37:50 71° W 20:37:50 71° W
Lacrosse 5 rocket 3.8 20:54:38 10° NW 20:56:20 22° NW 20:56:20 22° NW
Cosmos 2082 Rocket 3.4 20:59:15 10° NW 21:03:08 38° WNW 21:03:08 38° WNW
Terra 4.2 21:21:45 18° N 21:21:45 18° N 21:23:00 10° N
Cosmos 2278 Rocket 4.1 21:33:01 20° W 21:35:16 25° NW 21:39:56 10° N
